FW0600 Weather Reports


time (UTC)temp
C
wind
direction
speed
KPH
gust
KPH
rain 1hr
cm
rain 24hr
cm
rain mn
cm
humidity
%
barometer
mb
20260505090008 15 271 0.0 0.0 0.00 0.00 0.00 76 1019.7
20260505084507 16 271 0.0 0.0 0.00 0.00 0.00 72 1019.7
20260505083002 16 271 0.0 0.0 0.00 0.00 0.00 71 1019.4
20260505081602 16 271 0.0 0.0 0.00 0.00 0.00 70 1018.9
20260505080154 -17 0.0 0.0 0.00 0.00 0.00 1018.6
20260505074550 18 271 0.0 0.0 0.00 0.00 0.00 65 1018.4
20260505073051 18 271 0.0 0.0 0.00 0.00 0.00 63 1018.5
20260505071553 19 269 0.0 1.6 0.00 0.00 0.00 61 1018.3
20260505070049 20 306 0.0 1.6 0.00 0.00 0.00 59 1017.9
20260505064548 20 144 0.0 1.6 0.00 0.03 0.00 57 1017.7
20260505063048 20 145 0.0 4.8 0.00 0.03 0.00 56 1017.4
20260505061549 21 172 0.0 3.2 0.00 0.03 0.00 55 1017.7
20260505060047 22 242 0.0 4.8 0.00 0.03 0.00 53 1017.5
20260505054546 22 186 0.0 3.2 0.00 0.05 0.00 49 1017.3
20260505053046 23 323 0.0 3.2 0.00 0.05 0.00 49 1017.3
20260505051541 24 101 0.0 4.8 0.00 0.05 0.00 48 1017.2
20260505041536 24 88 1.6 6.4 0.00 0.15 0.00 45 1016.6
20260505040033 23 51 0.0 4.8 0.00 0.15 0.00 46 1016.6
20260505034534 23 123 0.0 6.4 0.00 0.28 0.00 47 1016.7
20260505033044 23 142 0.0 4.8 0.00 0.28 0.00 48 1016.8
20260505031527 22 157 1.6 11.3 0.00 0.28 0.00 49 1017.1
20260505030028 22 279 0.0 6.4 0.00 0.28 0.00 50 1017.2
20260505024521 22 106 3.2 9.7 0.00 0.43 0.00 50 1017.3
20260505023017 22 343 1.6 6.4 0.00 0.43 0.00 52 1017.3
20260505021514 21 89 1.6 8.0 0.00 0.43 0.00 52 1017.1
20260505020011 21 133 3.2 9.7 0.00 0.43 0.00 53 1017.6
20260505014509 21 36 3.2 8.0 0.00 0.53 0.00 54 1017.7
20260505013002 20 144 3.2 12.9 0.00 0.53 0.00 55 1017.7
20260505011602 20 121 1.6 11.3 0.00 0.53 0.00 56 1017.8
20260505004558 20 5 1.6 8.0 0.00 0.56 0.00 58 1018.3
20260505003050 20 40 1.6 9.7 0.00 0.56 0.00 58 1018.6
20260505001546 19 196 4.8 9.7 0.00 0.56 0.00 61 1018.6
20260505000046 18 149 3.2 9.7 0.00 0.56 0.00 64 1018.8
20260504234602 18 137 4.8 12.9 0.00 0.58 0.00 64 1018.7
20260504233035 18 133 4.8 12.9 0.00 0.58 0.00 65 1018.8
20260504231541 18 355 3.2 9.7 0.00 0.58 0.00 65 1018.9
20260504230026 18 77 1.6 8.0 0.00 0.58 0.00 65 1019.0
20260504224521 18 5 1.6 8.0 0.00 0.58 0.00 66 1018.8
20260504223017 17 223 0.0 12.9 0.00 0.58 0.00 68 1018.9
20260504221512 16 178 0.0 8.0 0.00 0.58 0.00 70 1018.9
20260504220008 16 200 0.0 3.2 0.00 0.58 0.00 74 1019.0
20260504214504 16 131 0.0 1.6 0.00 0.58 0.00 75 1018.6
20260504213104 15 130 0.0 3.2 0.00 0.58 0.00 77 1018.3
20260504211554 13 325 0.0 4.8 0.00 0.58 0.00 81 1017.9
20260504210057 13 134 1.6 4.8 0.00 0.58 0.00 84 1017.5
20260504204625 12 86 0.0 3.2 0.00 0.58 0.00 84 1017.4
20260504203049 12 155 0.0 1.6 0.00 0.58 0.00 84 1017.3
20260504201546 12 123 0.0 1.6 0.00 0.58 0.00 82 1017.3
20260504200043 13 116 0.0 0.0 0.00 0.58 0.00 78 1017.2
20260504194548 13 116 0.0 0.0 0.00 0.58 0.00 77 1017.0
20260504193036 14 116 0.0 0.0 0.00 0.58 0.00 77 1016.9
20260504191533 14 101 0.0 3.2 0.00 0.58 0.00 77 1016.9
20260504190036 15 100 0.0 3.2 0.00 0.58 0.00 76 1016.8
20260504184528 15 99 0.0 3.2 0.00 0.58 0.00 76 1016.3
20260504183029 15 119 0.0 3.2 0.00 0.58 0.00 75 1016.1
20260504181526 15 101 0.0 3.2 0.00 0.58 0.00 75 1016.1
20260504180024 15 158 0.0 3.2 0.00 0.58 0.00 75 1015.7
20260504174521 15 112 0.0 3.2 0.00 0.58 0.00 74 1015.7
20260504173020 16 145 0.0 6.4 0.00 0.58 0.00 74 1015.8
20260504171533 16 150 0.0 4.8 0.00 0.58 0.00 74 1015.8